Location: Colossi of Memnon
(25.7167°N, 32.6167°E)
Time: 16:32:21
(UTC+00:00)

Envisat - Pass Details

Date: 24 September 2021
Orbit: 764 x 766 km, 98.2° (Epoch: 18 October)

Event Time Altitude Azimuth Distance (km) Brightness Sun altitude
Rises 02:58:47 0° 9° (N) 3,228 6.4 -9.9°
Reaches altitude 10° 03:01:06 10° 7° (N) 2,300 5.6 -9.3°
Maximum altitude 03:06:09 72° 284° (WNW) 802 3.0 -8.2°
Drops below altitude 10° 03:11:10 10° 200° (SSW) 2,290 5.2 -7.1°
Sets 03:13:28 0° 198° (SSW) 3,213 6.0 -6.6°
